Wind_Speed
50 50 50 50 50 49 49 48 48 48 48 49 50 51 53 54 54 55 56 56 57 58 59 59 60 60 61 61 60 60 59 58 56 53 48 45 46 47 45 43 41 39 38 36 35 33 31 29 28 28 28 30 31 34 36 37 38 36 31 27 24 23 25 27 28 28 31 31 30 28 26 25 24 24 25 24 22 20 19 19 21 22 23 23 19 14 10 9
50 50 51 51 51 51 51 50 49 48 48 48 49 50 51 53 54 54 55 56 56 56 57 58 58 59 60 60 60 60 59 59 58 54 49 49 50 49 47 45 42 40 39 38 36 35 32 30 28 27 27 28 29 31 32 33 35 33 30 25 22 23 25 28 29 29 31 31 30 29 27 26 25 25 25 24 23 21 20 20 22 23 24 23 18 15 11 10
49 49 51 52 52 52 52 51 50 49 48 48 49 49 50 51 53 54 54 55 56 56 56 56 57 57 58 59 60 60 59 59 58 54 52 52 53 51 49 46 44 42 40 39 38 36 34 31 29 27 26 26 27 28 29 31 31 31 29 24 22 24 27 28 29 30 31 31 30 30 29 27 26 25 25 25 25 24 22 22 24 24 25 23 19 16 13 11
49 49 50 50 52 53 53 53 52 51 50 49 48 49 49 50 51 53 54 55 55 56 55 55 55 56 57 58 59 59 59 59 57 55 54 54 55 52 50 47 45 44 42 40 39 37 35 32 30 28 27 26 26 26 27 29 29 30 27 22 24 27 28 29 30 30 31 31 30 30 29 27 27 26 26 26 26 25 24 25 25 25 25 23 20 17 13 12
49 50 50 50 51 53 54 54 53 53 52 50 49 49 49 50 50 51 53 54 55 55 55 55 55 55 55 56 57 57 57 58 57 54 54 56 56 53 50 48 47 45 44 42 40 37 35 33 30 29 27 26 25 25 26 27 28 29 26 25 27 28 28 29 30 31 31 31 31 30 29 28 28 27 27 27 26 26 26 27 27 26 24 23 21 16 12 12
50 51 51 51 52 52 53 54 54 54 54 52 51 50 49 50 50 49 51 53 54 54 55 54 54 54 54 55 55 56 56 57 56 54 54 56 55 53 51 49 48 47 46 43 40 38 36 34 31 29 28 27 25 25 25 26 28 28 26 27 29 28 28 29 29 31 32 32 31 31 30 29 29 28 29 29 28 28 28 28 27 26 25 23 20 15 12 13
53 53 53 53 53 53 54 55 55 55 55 55 53 52 50 50 50 50 49 50 53 54 54 54 54 54 54 54 54 54 54 54 55 54 54 55 55 53 51 50 49 48 46 44 41 38 36 34 32 30 29 28 26 25 26 26 27 28 27 28 30 29 29 29 30 32 32 32 32 31 31 30 30 30 30 30 30 29 27 28 28 27 25 23 20 17 15 16
56 56 56 56 56 55 56 56 56 56 56 56 56 54 52 51 50 50 49 49 50 53 54 54 54 54 54 53 53 53 51 51 54 54 54 54 54 52 51 51 49 48 46 44 41 39 37 35 33 32 30 29 26 26 27 26 26 27 28 30 32 31 31 30 31 32 33 33 32 32 32 32 31 31 32 31 30 27 26 28 28 27 25 23 21 20 19 19
54 56 57 58 59 59 58 58 58 58 57 57 57 57 55 53 51 50 50 49 49 51 53 54 53 54 54 53 52 51 48 49 53 54 54 54 53 52 51 51 49 48 46 44 43 41 38 36 35 33 32 30 28 28 27 25 25 26 29 33 34 33 33 32 30 32 33 33 33 32 32 32 32 32 33 31 28 26 26 29 30 28 26 24 24 23 22 22
52 53 55 56 58 60 61 61 60 60 60 59 59 59 58 56 53 51 50 50 49 48 51 53 53 53 54 53 51 49 46 49 52 52 53 54 53 52 51 50 49 48 47 45 44 42 39 37 37 35 34 32 30 29 28 25 25 27 31 36 35 33 33 31 31 32 33 33 33 32 32 32 32 32 32 29 27 27 28 29 30 30 28 27 26 25 24 23
52 53 54 55 56 58 60 62 63 62 62 61 60 60 60 59 56 53 51 51 49 48 48 51 53 53 53 53 51 48 46 48 50 51 52 53 53 53 51 50 49 48 47 46 44 42 40 40 39 38 36 34 32 31 28 26 26 27 30 35 35 33 31 31 32 32 32 33 33 32 32 32 31 30 29 28 27 28 28 28 30 31 31 31 29 27 24 23
52 52 53 54 55 56 58 60 63 64 64 63 62 61 61 61 59 56 53 51 50 49 47 49 52 53 53 52 50 48 48 49 50 50 50 52 52 52 51 50 49 48 47 46 45 43 42 41 40 39 37 34 33 32 29 27 27 27 30 34 35 33 31 31 32 33 33 32 32 31 30 29 28 27 27 27 27 27 26 26 29 32 34 35 32 27 23 22
53 53 53 54 55 56 57 58 60 63 65 66 64 63 62 62 61 58 55 53 51 50 48 47 50 52 53 51 48 49 49 49 49 49 49 50 51 51 51 50 49 48 47 46 46 45 44 43 41 40 38 36 35 33 30 28 27 27 30 34 35 34 32 31 32 32 32 32 31 28 26 25 25 25 26 26 26 25 23 25 31 36 37 35 32 28 24 23
56 56 56 57 57 57 58 58 59 61 64 66 66 65 64 63 62 60 57 54 52 51 50 47 47 51 53 49 48 50 50 49 49 48 48 49 49 50 50 50 49 48 47 46 45 44 44 44 43 42 40 38 36 33 30 29 28 29 31 33 35 34 33 32 32 32 31 31 28 24 24 24 24 25 25 25 25 23 22 23 29 35 36 31 28 26 25 24
56 56 56 57 57 58 59 59 59 60 61 65 68 67 65 64 63 61 59 56 54 52 50 49 47 49 51 49 49 51 50 49 49 49 48 47 48 49 49 50 49 48 47 47 45 44 44 44 43 42 41 40 38 35 32 30 30 30 31 33 34 33 33 32 32 31 30 29 26 24 25 25 25 25 25 25 25 24 23 23 24 25 26 24 22 21 22 23
55 56 57 58 59 60 61 63 62 61 61 63 67 69 67 65 64 62 60 58 55 53 51 50 47 47 50 49 49 51 50 49 50 49 47 47 47 48 49 49 49 49 48 47 46 46 45 44 43 43 42 42 40 37 34 32 32 30 30 31 32 33 33 33 32 30 29 28 26 26 26 25 24 24 24 25 27 26 25 26 27 23 19 17 16 17 19 21
57 59 60 61 62 62 63 64 64 62 61 62 66 69 69 67 65 63 61 59 57 54 52 50 48 46 48 50 50 51 50 49 50 49 47 47 47 48 49 49 49 49 49 48 48 47 46 46 45 44 44 43 41 39 36 34 33 30 29 30 32 33 33 33 32 31 29 28 28 28 26 25 25 25 26 28 29 30 29 29 30 28 23 19 14 14 17 19
59 59 59 59 59 58 57 57 59 59 59 61 64 68 69 68 66 64 62 60 58 55 52 50 49 46 45 49 51 51 50 49 49 49 47 47 47 48 48 48 49 49 49 50 49 49 48 47 46 45 44 44 43 40 37 34 31 30 29 29 31 32 32 32 32 31 30 28 29 29 27 26 26 28 30 32 33 34 34 31 29 30 32 29 19 14 17 19
57 56 55 53 52 51 49 48 50 53 55 59 63 66 69 70 68 65 63 61 59 55 53 50 49 47 44 47 51 50 49 48 49 49 47 47 48 48 48 48 48 49 50 51 50 50 49 49 48 47 46 44 42 40 37 33 32 31 28 27 29 31 32 32 31 31 30 30 29 29 28 28 28 31 33 34 34 32 32 30 28 29 33 33 26 17 17 18
54 52 51 49 47 45 44 42 44 46 49 54 61 65 69 71 70 66 63 61 58 56 53 50 49 48 44 45 50 51 49 48 49 49 48 48 48 48 48 48 48 49 50 50 51 50 50 49 48 46 44 42 41 39 37 35 34 31 28 28 29 31 32 33 31 31 31 31 31 31 32 31 31 32 34 35 33 30 28 27 28 32 34 34 30 22 17 15
49 47 45 42 40 39 39 38 39 41 44 49 56 62 67 71 70 67 63 61 59 56 54 50 48 48 44 43 49 52 50 49 49 49 49 49 49 49 49 49 49 49 49 50 50 50 50 50 48 45 43 41 41 40 38 36 35 32 30 29 29 31 33 33 32 31 31 31 32 33 34 34 32 32 35 35 33 30 28 28 29 32 34 34 30 22 15 12
42 39 36 34 35 35 35 35 35 37 39 44 51 56 61 69 71 67 64 61 59 57 54 50 47 46 43 42 47 51 51 49 48 49 48 48 49 49 50 49 49 49 49 50 51 51 52 51 48 45 43 41 41 40 39 37 36 33 31 30 30 31 31 32 32 31 31 32 33 34 33 35 34 34 36 35 32 31 30 29 29 28 27 28 28 21 13 13
32 30 29 31 33 33 33 32 32 33 35 39 45 49 55 66 70 67 64 61 58 57 54 50 47 45 45 42 45 50 51 48 48 48 48 47 48 48 49 49 49 49 49 50 50 51 51 50 48 46 44 42 41 40 39 38 37 35 32 30 30 31 30 31 31 31 31 32 33 33 33 35 37 37 38 34 30 31 28 24 24 24 24 24 27 22 14 14
25 27 29 31 32 31 30 29 27 30 33 36 40 44 52 64 69 66 64 61 59 58 54 50 47 45 46 44 44 48 51 50 48 47 47 47 47 47 48 48 48 49 49 49 49 49 50 48 47 46 44 42 41 40 40 39 37 36 33 31 30 30 30 31 31 31 32 33 34 35 35 38 39 38 38 34 31 30 27 23 21 21 23 23 26 25 18 14
25 27 29 29 27 25 24 22 22 26 32 34 38 43 50 61 67 66 65 62 59 58 55 50 46 44 46 45 43 46 50 50 49 48 47 46 46 46 47 48 48 48 49 49 49 50 50 48 46 46 45 44 42 41 40 39 37 36 34 32 30 30 31 32 32 32 33 35 35 36 37 39 39 38 37 34 32 30 28 27 24 22 24 22 21 22 20 16
26 26 26 25 21 20 19 18 19 24 29 32 36 42 49 58 64 65 64 62 59 57 55 50 46 44 46 45 42 44 48 49 48 48 47 46 45 45 46 47 47 48 48 49 49 50 50 49 47 46 46 45 44 42 40 39 38 37 35 32 31 31 32 33 33 34 35 36 35 36 38 40 39 37 36 33 31 30 29 29 25 23 25 23 17 18 18 14
26 24 24 21 17 15 14 14 15 19 26 30 35 39 45 54 62 64 62 61 59 57 54 50 47 45 45 44 42 42 45 46 47 47 46 45 44 44 45 45 46 48 49 49 50 50 50 49 48 47 47 47 46 44 42 40 39 38 35 33 31 31 32 33 34 35 36 36 36 37 39 40 39 37 37 33 29 30 29 28 25 21 23 21 15 15 14 11
23 22 21 17 10 8 10 10 9 15 23 30 37 38 41 50 58 60 60 59 57 56 54 50 47 46 45 44 43 41 42 43 45 45 45 44 44 43 44 44 45 46 47 49 50 50 50 49 48 47 48 48 47 44 42 41 40 38 35 33 31 32 33 33 34 35 36 37 38 39 39 40 39 37 37 34 30 29 27 24 22 20 21 19 12 11 11 10
22 19 17 11 4 4 7 9 7 12 21 28 35 37 38 44 51 56 59 56 53 54 54 49 47 46 44 43 43 42 41 42 43 43 43 44 44 44 43 43 44 45 46 47 48 49 48 47 46 47 47 47 46 43 42 41 40 38 35 33 33 34 36 36 36 37 38 39 39 39 39 40 40 38 37 35 29 25 23 22 21 19 20 18 12 9 9 10
18 15 13 6 2 4 8 10 7 10 18 23 28 31 32 37 44 52 55 53 51 52 52 49 48 46 43 42 42 41 42 43 43 42 43 44 44 44 43 42 43 44 45 47 48 48 47 46 45 46 46 46 44 42 41 41 40 37 35 35 36 37 38 39 40 40 41 42 40 40 40 41 42 38 35 32 26 22 21 21 21 20 19 15 10 11 11 10
13 11 10 4 3 6 9 10 7 12 18 20 22 26 27 31 39 46 49 50 50 49 50 50 49 46 43 40 40 41 42 43 43 43 44 45 45 45 45 44 44 45 45 47 48 47 46 46 45 45 46 47 45 42 41 42 40 38 36 36 37 39 40 41 42 42 43 42 40 41 41 42 42 37 33 30 26 25 23 20 19 19 18 13 9 11 13 12
9 9 8 6 8 9 11 9 8 15 20 20 22 23 24 29 37 41 44 47 46 45 49 51 49 46 43 40 39 40 40 41 42 43 44 44 44 45 45 45 45 46 47 48 49 48 47 46 46 46 47 47 47 45 44 44 42 40 39 39 40 41 42 43 44 44 43 42 41 42 42 43 42 36 32 31 29 27 25 21 19 18 16 14 11 11 13 13
8 8 8 9 10 10 10 9 11 17 22 24 24 22 23 29 34 37 41 44 44 44 48 50 49 47 43 40 40 40 39 39 40 41 43 43 43 43 44 44 45 45 46 47 48 48 47 47 46 47 48 48 48 47 47 47 44 42 42 42 43 44 45 45 45 44 44 43 42 42 42 44 42 36 33 32 31 29 27 25 22 19 16 15 13 12 13 14
7 5 6 7 8 8 9 12 17 23 26 25 24 22 25 29 32 33 38 42 43 44 47 49 49 47 43 40 39 40 40 39 39 40 42 43 43 43 43 44 44 45 45 45 46 46 46 47 47 48 49 48 48 47 47 44 42 42 42 42 44 44 45 45 45 45 45 44 42 41 43 45 42 36 33 32 32 31 29 28 25 21 18 16 15 13 14 14
7 6 5 6 8 12 15 19 23 26 25 23 23 25 28 30 29 30 34 41 44 44 46 47 47 46 43 41 40 40 39 39 39 40 41 42 42 42 42 43 44 45 46 45 46 45 45 45 46 47 47 47 47 46 46 44 41 41 42 44 45 45 45 45 44 44 44 43 42 41 44 46 43 37 34 33 33 32 30 29 26 23 19 17 17 16 15 15
5 5 6 7 13 19 20 22 23 23 22 24 28 32 33 29 26 26 33 41 44 44 45 46 45 44 42 42 41 40 39 38 38 38 40 41 41 41 42 42 42 44 45 45 45 45 45 45 45 46 46 45 45 45 46 45 43 43 44 46 46 47 46 45 45 45 45 45 43 42 44 46 43 39 36 35 34 32 31 30 27 24 21 18 17 17 16 16
4 5 8 11 18 20 18 19 20 21 26 32 36 35 31 25 22 25 35 42 43 42 43 44 44 43 41 41 41 39 39 39 39 39 39 40 41 42 42 42 42 43 43 44 44 43 44 44 44 45 45 45 44 44 44 45 44 44 45 46 47 48 47 46 46 47 47 46 44 42 44 45 44 42 39 36 34 33 32 30 28 25 21 18 17 17 18 18
6 7 11 15 18 17 16 18 21 28 36 39 36 31 27 24 22 28 36 42 42 41 42 43 43 42 41 41 40 39 38 39 40 40 39 40 41 41 43 43 43 43 42 43 43 43 42 42 42 43 44 43 44 44 45 46 46 45 45 46 48 48 47 48 49 49 48 48 45 43 43 43 43 43 39 36 35 33 31 30 28 26 21 18 18 18 20 20
10 13 17 18 17 15 16 21 29 38 40 36 31 29 29 27 26 30 37 40 40 40 40 41 41 41 40 40 39 38 38 38 39 40 40 40 41 41 43 43 43 44 44 43 43 43 42 41 41 41 41 42 44 46 48 49 49 48 47 48 49 49 48 48 49 49 49 48 46 44 43 42 42 42 39 36 35 33 32 30 29 27 22 20 20 21 21 22
18 21 21 18 16 15 20 28 37 38 32 28 29 29 30 29 27 32 37 39 39 38 38 38 39 40 39 39 39 38 38 38 39 40 40 40 40 40 41 42 43 43 44 44 43 43 42 41 41 41 41 42 45 47 47 48 50 50 50 51 51 51 50 50 50 50 49 48 47 45 44 42 41 41 39 37 36 35 34 32 30 28 24 22 23 23 24 25
22 21 19 16 16 20 27 33 35 30 27 29 29 28 30 27 27 34 37 37 37 36 35 35 36 37 38 38 38 38 38 38 39 39 39 39 39 39 40 41 41 42 43 44 44 43 41 40 40 40 41 42 43 43 44 45 46 47 49 50 50 51 52 52 53 52 51 50 49 47 46 43 42 41 39 37 36 35 35 33 31 28 26 25 25 25 26 27
17 16 16 19 24 28 31 30 27 26 28 29 29 30 30 25 28 35 35 33 34 34 34 35 35 36 36 36 37 37 37 38 39 39 39 39 39 39 39 39 40 41 42 42 42 42 41 39 39 40 41 41 41 41 42 43 43 44 47 48 49 50 52 53 53 53 52 52 51 49 48 46 43 42 40 37 36 35 34 33 31 30 29 28 28 28 28 27
18 21 24 27 28 28 26 23 22 24 27 28 30 31 27 25 30 32 29 29 32 32 33 33 34 34 35 35 35 36 36 37 38 38 39 39 38 38 38 38 39 40 41 41 41 41 40 38 38 39 40 40 40 40 41 42 43 45 47 49 49 50 51 52 52 51 52 52 51 50 50 48 45 42 40 38 36 35 33 32 32 31 30 30 29 29 28 28
26 27 27 25 22 19 17 19 23 26 25 25 29 31 27 27 30 28 24 26 30 31 31 30 31 32 32 33 33 33 34 36 37 37 37 37 37 37 37 37 38 39 39 38 39 40 39 38 39 40 40 41 42 42 43 44 46 47 48 49 50 49 50 52 52 52 52 51 51 52 51 49 46 42 40 39 38 36 34 32 32 31 31 31 31 30 30 31
25 23 20 18 17 16 17 20 24 27 25 23 25 28 29 30 29 24 22 24 28 29 29 28 29 30 30 31 30 31 32 33 34 35 35 35 35 36 36 36 37 38 37 35 36 37 37 37 38 40 41 42 43 45 45 46 47 48 48 49 50 50 51 52 53 54 53 52 52 53 52 50 47 45 43 41 39 36 34 32 32 32 32 32 32 32 32 32
22 21 21 19 17 17 19 21 22 24 26 25 23 26 31 32 27 22 20 23 26 26 27 27 27 29 29 29 29 30 30 31 32 32 33 33 34 35 36 35 36 37 36 35 35 37 37 36 37 38 38 39 41 41 42 43 44 45 46 47 50 51 51 51 53 54 54 52 52 53 52 50 49 47 45 43 40 36 34 33 34 34 34 33 33 32 32 33
20 20 21 21 19 18 20 23 25 25 25 24 22 24 30 31 26 22 19 20 23 23 24 25 26 28 28 28 28 28 29 30 30 31 31 32 34 35 35 35 35 35 36 36 36 37 37 37 38 37 37 38 39 40 40 41 42 43 44 45 47 50 51 52 53 54 54 54 53 53 52 51 50 48 46 44 42 39 36 35 35 34 33 33 32 33 34 35
17 15 15 17 17 19 17 19 26 29 23 19 18 21 26 26 25 23 19 19 23 23 22 23 24 26 27 27 27 27 28 29 29 30 31 32 34 36 35 35 34 35 36 37 37 38 38 37 38 38 37 38 40 40 41 41 42 42 42 43 44 47 50 51 52 53 54 54 54 53 52 52 50 48 46 45 44 42 40 39 38 37 35 34 35 36 37 37
19 17 14 13 14 17 16 14 24 28 22 18 17 17 19 23 24 24 20 19 22 21 21 23 23 24 26 26 26 26 27 28 29 30 31 33 34 35 35 35 34 35 36 37 38 38 38 38 38 38 38 39 39 40 41 42 43 43 42 41 42 43 46 49 51 52 53 53 53 53 53 52 50 48 47 46 45 44 43 42 42 41 39 39 39 39 38 37
18 19 18 15 13 15 15 12 18 23 19 19 18 16 16 19 21 20 18 19 19 18 20 22 22 23 24 24 25 25 26 27 27 29 32 33 34 34 34 34 34 35 36 37 38 39 38 38 39 39 39 39 40 41 42 43 43 42 41 40 40 42 44 47 49 51 51 51 51 52 52 52 51 49 48 47 46 45 44 43 42 41 40 40 40 39 38 37
16 16 17 17 15 13 13 12 16 18 14 15 16 14 12 13 16 16 16 19 19 17 18 19 20 22 23 23 23 23 24 26 27 29 32 33 33 33 33 33 33 34 35 36 37 38 38 39 39 40 40 41 41 42 42 42 42 42 41 40 41 42 43 45 47 49 50 50 49 50 51 51 50 50 49 48 47 46 45 43 41 40 39 39 39 38 37 37
17 16 16 15 14 13 10 13 17 17 13 11 11 10 9 8 11 14 16 19 18 17 17 18 18 20 21 22 21 20 22 26 28 31 32 33 33 32 32 32 32 32 34 35 36 37 38 39 40 41 42 42 43 43 43 43 43 43 43 42 41 42 43 43 44 46 47 48 49 48 48 48 49 49 49 48 47 45 44 43 41 41 40 40 39 38 37 36
Wind_Direction
269 267 265 263 261 260 259 257 255 254 252 250 249 248 247 247 247 247 246 245 243 241 239 239 239 239 238 238 237 237 237 237 237 237 236 237 238 238 238 238 238 239 239 239 239 239 240 241 242 242 242 241 240 239 239 239 239 238 239 239 238 235 231 230 230 231 235 238 237 237 235 235 235 236 239 240 238 233 232 231 233 236 240 245 247 247 257 256
269 267 266 264 262 260 259 258 256 255 253 251 250 248 247 246 246 246 245 244 243 242 240 238 238 238 238 237 236 236 236 236 237 236 236 236 237 237 237 237 237 237 237 237 238 238 238 239 240 241 242 242 241 240 239 238 237 236 235 235 232 229 227 228 227 227 233 236 236 235 233 232 233 235 237 238 235 232 229 229 231 234 239 244 245 244 247 245
270 268 266 264 263 261 260 258 257 255 254 252 250 249 247 246 245 245 244 243 242 241 240 239 237 237 237 236 236 235 235 235 235 235 235 235 236 236 237 237 236 236 236 236 236 237 237 237 239 241 242 242 241 240 239 238 236 233 231 228 227 225 225 226 224 224 229 233 234 234 233 232 231 232 235 236 234 231 228 226 230 233 238 243 245 244 243 238
272 269 267 265 263 261 260 258 257 256 254 253 251 249 248 247 245 244 243 243 241 241 240 239 238 236 236 235 235 235 234 234 234 233 234 235 236 236 236 237 237 236 236 236 236 236 236 236 236 238 239 240 240 239 238 236 233 230 226 222 223 225 224 224 223 223 227 230 231 232 233 232 230 231 233 236 236 232 229 227 230 235 238 242 244 247 244 236
272 270 268 266 263 261 260 258 257 257 255 253 252 250 248 247 245 244 243 242 241 240 239 239 238 236 235 234 234 234 234 234 232 232 233 234 235 235 235 235 236 236 236 236 236 235 234 234 234 235 237 238 238 238 236 234 231 227 221 218 222 224 223 224 224 223 226 228 229 230 232 231 230 230 230 232 233 231 231 232 233 235 237 238 241 246 243 233
273 270 268 266 263 261 259 258 256 256 255 254 252 250 249 247 245 244 242 241 240 239 238 237 237 236 235 233 233 233 233 233 232 230 231 232 233 233 233 234 234 235 235 235 235 235 234 233 233 234 235 235 235 235 233 231 229 224 216 217 221 222 223 224 224 224 225 227 228 228 229 231 231 230 230 231 231 232 236 240 240 238 237 236 238 243 237 226
272 270 268 265 263 261 259 257 255 254 253 253 252 251 249 247 245 244 242 241 240 239 237 236 236 236 234 233 232 233 233 233 232 229 229 231 232 231 231 232 233 234 234 234 234 234 233 232 231 232 232 233 233 232 231 229 226 220 213 218 221 221 223 223 223 224 225 227 228 227 226 228 230 232 233 232 232 236 241 245 245 242 240 238 238 240 229 220
271 268 266 264 262 260 258 256 255 253 251 251 251 250 249 247 245 244 242 241 240 238 237 235 235 235 234 233 232 232 231 232 231 229 228 229 230 229 229 230 231 232 232 232 232 232 231 229 229 229 230 231 230 229 229 227 225 218 210 217 221 219 221 221 222 224 225 227 228 227 226 227 230 232 234 233 233 238 243 246 246 243 241 239 239 238 228 220
271 269 266 264 261 259 257 255 254 252 250 248 248 248 247 246 245 244 242 241 240 238 236 235 234 233 233 232 231 230 229 230 230 227 226 227 228 228 228 228 229 230 230 229 230 230 228 227 226 227 227 227 226 226 227 224 224 217 208 215 220 218 220 220 222 225 225 228 228 228 228 228 230 232 234 235 236 239 243 246 246 243 241 240 239 237 231 222
274 272 269 266 262 259 256 254 252 251 249 247 246 245 245 245 244 243 242 240 239 238 236 234 232 232 231 230 230 228 227 228 229 227 225 225 226 227 226 227 227 228 228 227 228 228 226 225 224 224 224 224 224 225 226 222 222 218 210 215 219 218 220 220 222 226 226 228 228 230 230 230 231 233 236 239 240 241 243 246 248 248 245 242 238 234 230 222
276 274 271 269 266 262 258 254 251 249 248 246 244 243 243 243 242 241 241 239 238 237 236 234 232 230 230 229 228 227 226 227 227 226 224 224 225 225 225 225 226 226 226 226 225 225 223 222 222 223 223 223 223 224 224 221 221 219 212 215 219 218 219 220 222 226 227 228 229 230 232 232 234 236 238 240 241 242 245 248 251 251 248 243 236 231 227 222
276 274 271 269 267 265 261 257 252 249 247 245 243 242 241 241 240 239 239 238 237 236 235 234 231 229 229 227 226 226 224 225 225 224 223 222 223 224 224 223 224 224 225 225 223 222 222 222 221 221 222 222 223 223 221 219 220 218 212 213 218 218 218 220 222 225 227 229 230 231 234 236 238 240 241 242 244 245 246 249 250 249 246 240 232 227 225 222
277 274 272 270 269 266 263 259 255 250 246 243 242 240 239 239 238 237 236 236 236 234 234 233 230 228 227 225 225 225 223 223 224 223 222 221 221 222 222 222 222 222 223 223 223 222 221 220 220 220 220 220 221 222 220 220 219 216 211 212 217 218 217 220 223 226 227 230 232 233 237 240 241 242 243 244 248 249 246 247 249 245 239 232 223 220 222 221
279 277 274 272 271 269 266 262 256 252 247 243 240 238 237 236 236 235 234 234 234 233 232 231 230 228 225 223 224 224 222 222 224 223 221 220 219 220 220 220 220 220 220 221 222 223 222 221 219 219 218 218 220 220 218 219 219 217 212 212 217 219 216 218 223 226 228 231 233 234 237 240 241 241 242 244 248 250 246 246 249 243 231 220 213 214 218 220
283 280 277 275 272 270 268 264 259 254 249 244 239 236 235 234 233 233 232 231 232 232 230 229 229 227 224 222 222 222 220 220 222 222 220 218 218 218 219 218 217 217 218 218 218 220 221 222 221 220 219 218 219 218 216 216 218 218 214 213 218 219 216 216 221 225 228 231 231 231 233 237 239 241 242 245 249 250 242 235 238 236 225 212 203 206 214 219
287 285 281 277 274 271 269 267 262 256 250 244 239 234 232 231 231 230 229 229 229 230 229 228 227 226 223 220 220 220 219 218 220 220 218 217 216 216 217 216 215 215 216 216 217 217 218 219 220 220 219 218 219 218 215 215 217 218 216 215 218 219 218 216 217 221 225 228 229 229 231 235 239 242 244 246 250 250 242 230 228 227 219 207 198 203 215 220
291 288 284 280 276 273 269 266 263 257 250 243 238 233 229 228 228 228 227 226 226 227 227 226 225 225 222 219 219 219 218 217 219 219 217 216 215 215 215 215 214 214 214 215 215 216 216 216 217 218 218 218 218 218 216 215 217 219 218 217 216 217 220 218 215 218 222 225 229 231 230 232 237 241 243 244 246 246 241 233 230 228 223 224 225 223 225 226
293 289 285 282 278 274 269 264 259 253 247 240 236 232 227 225 225 225 224 223 223 224 225 224 223 223 222 218 217 218 217 216 217 218 216 215 215 214 214 213 213 212 213 215 215 215 216 215 215 217 218 218 218 218 218 217 219 222 221 218 215 216 221 220 214 215 220 223 229 233 233 232 234 237 239 238 238 240 239 237 236 234 230 231 233 232 229 226
293 290 286 283 279 275 269 262 255 248 242 236 232 230 225 222 222 222 221 220 220 221 223 222 220 221 220 217 216 217 216 214 215 216 215 214 214 214 213 212 211 211 213 214 215 215 216 215 214 215 216 218 218 219 218 217 218 220 220 218 217 218 221 222 216 214 218 222 227 233 236 236 233 233 236 237 239 242 243 240 237 235 230 227 228 236 238 229
292 289 287 284 279 275 269 261 252 245 239 233 228 226 223 219 219 219 219 218 217 218 220 220 219 219 219 216 214 215 214 212 213 214 213 213 212 212 212 211 210 211 212 214 214 215 216 216 216 215 215 217 219 218 217 216 216 217 217 216 217 218 220 222 218 214 215 219 224 229 235 237 234 234 238 241 244 248 249 244 239 236 232 228 230 237 241 230
292 289 286 283 279 275 271 263 252 243 237 232 227 224 221 218 215 216 216 215 215 216 217 218 217 217 217 216 214 213 212 210 211 212 212 212 211 211 211 211 210 210 211 212 213 214 216 216 215 214 214 216 218 218 216 215 216 216 215 214 215 216 219 221 219 215 214 217 221 224 229 233 235 237 239 242 244 248 250 244 242 243 233 220 218 222 223 217
293 289 286 283 282 279 274 266 253 242 234 229 225 222 220 216 213 213 214 213 212 213 215 216 215 215 215 215 213 212 211 209 209 210 210 210 211 211 211 210 210 210 210 212 212 213 215 216 214 212 211 214 217 217 215 215 216 215 214 214 214 215 218 220 219 216 215 216 219 222 227 230 233 236 238 239 240 246 247 232 229 235 225 208 204 207 208 204
296 293 290 289 287 283 277 268 254 240 230 224 221 219 218 214 210 210 212 211 209 210 211 213 213 213 213 212 211 211 210 208 207 209 209 209 210 210 211 210 209 209 210 212 213 214 215 215 212 210 210 211 215 216 215 215 215 215 214 214 213 214 218 219 218 217 217 218 219 221 226 229 230 232 235 236 235 242 243 224 217 222 217 205 198 196 197 197
302 299 296 295 291 283 274 266 253 235 223 217 214 214 215 212 207 207 209 209 207 207 208 209 210 211 211 210 209 209 208 207 206 207 208 208 208 209 210 210 209 209 210 211 213 214 216 215 212 210 209 210 213 215 215 215 215 215 214 213 211 212 216 218 217 217 218 219 219 220 225 228 229 231 232 232 233 238 240 235 234 227 213 205 198 193 192 191
307 303 302 299 292 280 268 257 243 226 214 210 208 208 211 209 204 204 207 207 205 205 206 206 207 210 210 208 207 207 207 206 204 205 206 206 207 207 208 208 208 209 210 211 212 213 214 213 211 210 209 210 211 213 213 214 215 215 214 212 209 209 212 216 216 216 219 220 220 221 225 229 229 231 232 230 231 236 240 240 241 233 214 202 194 190 188 188
312 309 309 305 290 275 260 244 233 217 206 204 203 205 208 206 202 202 204 205 203 203 204 203 205 208 208 206 206 206 206 204 203 203 204 204 205 206 207 207 207 207 208 210 212 213 214 211 209 209 209 209 211 211 211 212 214 215 214 210 207 206 209 212 214 217 220 222 223 223 228 231 231 233 234 231 229 233 237 236 236 234 218 207 198 186 181 185
319 316 318 315 297 275 249 230 225 208 198 197 196 201 206 204 200 199 202 203 202 202 202 201 203 205 206 204 204 205 205 203 202 202 202 203 204 205 205 206 207 206 206 209 212 213 214 211 208 207 208 209 210 210 210 211 212 213 212 209 206 205 208 210 213 217 220 222 224 224 228 233 233 233 235 235 230 230 234 234 234 230 216 209 205 188 179 186
329 324 327 325 300 262 223 205 206 195 192 193 192 196 202 201 199 198 199 201 200 201 201 200 201 203 204 202 201 202 203 203 202 200 199 201 202 204 205 205 206 206 207 209 212 213 214 211 208 208 208 209 210 209 210 211 212 212 211 208 204 203 205 208 213 218 221 222 225 226 228 232 234 233 234 235 231 229 232 232 234 232 218 213 212 195 188 195
338 335 339 334 270 216 186 171 169 183 188 189 190 193 196 197 197 196 197 198 198 200 200 198 199 202 203 200 199 200 200 200 201 199 198 199 200 201 204 205 205 205 207 210 213 214 215 213 209 209 209 210 209 208 208 210 212 210 208 205 202 201 203 206 211 216 220 222 224 227 228 232 236 234 234 235 230 228 230 228 232 235 225 223 231 226 209 202
346 353 1 356 180 147 146 144 141 173 179 180 185 191 192 194 194 194 195 196 196 198 197 195 197 200 200 198 198 199 198 198 197 196 197 199 199 199 201 203 204 205 206 209 213 214 214 213 210 210 210 210 208 208 208 209 210 209 206 204 201 201 203 205 210 214 219 221 222 226 228 230 235 236 235 236 232 228 226 225 230 232 228 228 235 232 220 210
360 14 20 27 100 115 130 129 139 173 177 175 178 182 185 188 189 190 192 193 194 195 194 193 195 197 198 196 197 200 200 198 196 194 196 198 199 199 199 200 201 204 206 207 211 213 213 213 211 210 210 210 207 206 208 209 209 206 204 202 200 201 204 206 210 213 218 220 220 224 228 230 234 236 235 235 231 225 220 217 221 225 225 223 217 217 216 218
33 46 50 79 96 109 121 123 150 171 171 164 160 165 175 182 184 185 189 190 191 192 191 192 193 195 196 193 195 199 201 200 197 195 196 199 200 199 199 199 200 203 205 206 208 210 211 212 211 209 210 210 208 204 205 207 207 205 203 201 201 202 204 207 210 213 218 220 219 221 226 231 235 235 235 233 227 222 217 212 212 215 221 221 215 214 215 224
41 59 75 91 97 107 119 133 154 155 152 147 145 155 167 171 175 180 184 186 188 189 189 190 192 193 194 192 193 196 198 200 199 197 196 198 202 201 200 200 200 204 207 207 207 207 208 209 210 209 209 210 209 207 206 207 207 205 204 204 203 205 207 208 211 214 218 220 218 219 225 231 235 233 232 231 227 221 216 211 207 206 214 217 212 215 221 229
11 38 82 91 98 119 132 139 143 141 141 141 142 150 155 158 164 173 180 183 185 186 186 189 192 192 191 190 193 195 196 197 198 198 198 199 201 201 202 202 201 204 208 208 209 208 208 208 208 209 209 209 209 208 207 207 207 207 205 205 207 209 211 211 212 215 218 220 219 218 223 230 233 232 232 232 230 226 219 210 205 201 205 211 212 221 233 240
2 31 90 101 109 127 134 134 136 135 134 136 139 140 140 145 155 166 176 181 184 184 183 187 192 192 189 188 192 195 196 196 196 197 199 201 203 203 203 204 203 205 207 208 209 209 209 209 209 209 210 209 209 208 206 204 204 205 203 203 208 210 211 211 213 216 219 222 221 219 224 230 233 234 234 233 232 231 226 217 209 203 202 211 219 227 237 247
18 56 94 115 129 132 132 135 136 133 130 131 130 129 129 132 141 159 175 180 182 182 182 185 189 191 190 189 191 193 194 195 196 198 199 200 202 202 203 205 205 207 208 208 208 208 208 209 209 210 210 209 209 208 206 204 201 202 203 205 208 207 207 210 213 216 219 222 222 221 225 231 233 234 235 235 234 233 232 227 221 213 208 214 223 231 239 249
58 92 107 124 135 131 129 136 136 131 130 128 125 123 123 128 142 165 176 179 180 180 181 184 186 188 189 190 192 193 194 194 195 197 199 199 200 200 201 203 205 207 209 209 209 209 209 209 209 210 209 208 209 207 207 205 203 203 204 206 205 204 207 211 213 216 219 222 223 222 225 230 232 233 235 236 236 235 235 235 232 225 218 219 227 235 243 251
72 104 118 125 127 123 128 135 130 128 127 125 122 120 120 131 155 171 175 177 178 178 181 183 184 186 189 191 193 194 195 196 196 196 197 199 200 200 200 201 203 205 207 209 210 209 208 208 209 211 210 208 208 207 206 205 204 204 205 206 204 204 210 214 215 217 220 223 224 224 226 229 232 233 235 237 238 239 239 241 241 235 225 223 229 237 247 254
84 110 118 119 120 123 131 133 131 130 127 120 115 111 115 131 156 170 173 175 176 177 180 183 183 184 187 190 193 195 196 197 198 197 197 198 199 200 201 202 202 203 204 206 209 209 208 207 207 210 211 208 208 207 207 207 206 203 203 204 204 206 213 217 219 220 221 224 227 226 227 230 231 234 236 237 239 240 242 246 245 237 229 227 232 239 249 257
102 114 114 111 114 122 132 138 139 135 123 109 102 106 121 136 157 170 173 173 174 176 180 182 183 184 186 189 192 195 197 198 198 199 198 197 198 200 202 203 202 203 203 204 207 208 208 207 206 208 209 208 209 209 208 210 211 207 204 204 204 205 210 214 219 222 223 226 229 230 231 231 231 233 236 237 239 241 243 244 241 236 234 235 237 242 250 258
106 110 104 104 115 128 135 137 132 121 106 101 105 120 135 146 164 171 170 170 172 175 178 180 183 185 186 188 191 194 198 199 199 199 198 197 198 200 202 203 203 203 204 205 206 206 206 206 206 207 208 207 209 210 209 211 213 212 210 208 206 205 208 211 216 220 223 225 228 231 234 234 232 234 236 238 240 241 243 241 237 238 239 238 239 244 251 257
98 101 104 114 124 128 127 120 106 93 90 99 117 134 141 153 169 167 163 166 170 172 176 179 183 185 186 189 192 194 197 200 200 199 197 196 197 199 201 202 203 204 205 206 207 207 205 204 205 207 207 207 207 208 209 210 211 211 211 210 208 208 209 211 217 220 222 224 228 230 233 235 234 235 237 238 239 241 241 240 239 240 240 238 241 247 253 258
100 107 113 117 119 118 112 97 78 73 80 100 126 140 145 158 164 157 155 164 169 171 175 179 182 185 188 190 193 195 197 200 201 200 198 196 195 198 200 201 201 204 205 205 207 208 205 203 204 206 206 205 206 206 207 209 209 209 209 210 210 210 211 213 217 221 223 226 229 231 234 236 237 238 239 240 240 240 242 242 243 244 244 245 249 253 256 261
108 111 109 105 101 94 80 68 69 80 96 119 139 147 152 156 153 146 149 162 168 172 176 179 182 186 189 192 194 196 198 200 201 200 198 196 195 197 200 200 200 202 205 205 207 209 207 203 204 206 205 204 204 205 204 206 209 209 209 210 210 210 211 213 216 220 223 226 230 232 235 237 239 241 243 243 243 245 246 247 248 249 250 251 253 255 258 263
94 93 86 75 68 63 61 66 80 95 112 130 145 154 153 146 140 140 150 161 167 172 175 178 182 186 190 193 195 197 199 200 200 199 197 195 195 198 200 200 200 201 202 203 207 210 209 206 205 207 207 205 205 206 205 206 209 210 208 209 210 210 211 214 216 219 222 225 228 231 234 237 238 240 242 244 246 248 249 250 251 252 253 253 254 256 260 264
70 70 67 65 66 72 77 79 83 93 108 126 146 155 148 138 138 146 153 160 167 172 176 178 182 187 190 193 195 197 198 198 197 196 195 193 195 198 201 201 201 201 199 199 204 208 208 205 206 209 210 208 208 209 208 208 211 212 210 209 210 210 211 213 216 219 222 224 227 230 233 235 237 238 240 243 246 248 249 250 252 253 254 255 256 258 262 265
64 67 70 74 85 102 99 85 85 95 110 127 141 148 144 140 145 151 151 160 169 172 174 176 182 187 190 193 194 195 197 195 192 192 192 192 194 197 200 200 200 200 200 198 201 206 206 203 203 206 208 209 208 208 208 209 212 214 214 212 211 212 212 214 216 219 222 224 226 229 232 234 236 238 240 242 244 247 249 250 252 253 254 256 258 260 263 266
66 68 72 79 96 121 117 90 94 105 110 117 125 137 146 150 152 147 146 165 176 174 173 175 181 187 190 193 194 194 194 192 190 189 189 191 195 197 198 199 199 200 200 200 200 204 205 202 201 202 205 207 208 207 207 207 210 212 214 214 214 214 214 215 218 219 221 223 225 228 231 233 236 238 240 242 245 247 250 251 252 254 255 257 260 263 266 267
63 66 74 84 103 133 137 109 110 113 103 101 118 136 150 156 156 151 151 167 175 173 174 178 183 187 190 193 195 194 192 190 188 187 188 192 197 199 199 198 199 200 201 201 201 203 202 201 200 200 202 205 206 206 206 206 208 210 212 213 215 217 217 218 220 222 223 224 226 227 230 232 235 238 240 243 245 247 250 251 253 255 257 259 262 264 266 266
57 58 65 73 92 133 151 140 132 126 101 91 115 138 153 159 162 160 162 167 167 170 176 182 186 188 190 193 195 195 192 188 185 186 190 193 197 200 200 199 199 200 201 202 202 203 201 200 199 199 200 202 204 204 205 206 207 209 210 211 213 216 218 219 221 223 224 226 227 228 230 232 235 237 240 243 246 249 251 253 254 256 258 260 262 263 264 266
55 53 58 64 73 105 143 164 161 150 120 96 108 126 145 162 167 164 163 162 162 165 173 179 186 188 188 191 193 192 188 184 182 186 191 193 195 198 200 200 201 201 201 203 204 204 202 200 199 198 199 201 202 203 204 206 206 207 207 208 210 213 216 219 221 223 225 226 228 229 230 233 236 239 241 243 246 249 251 252 254 256 258 259 261 263 265 266
56 55 56 59 61 74 113 161 170 165 151 124 113 115 119 142 161 159 158 159 159 161 166 171 180 185 187 188 189 186 182 179 180 184 189 192 194 196 199 202 203 203 203 204 205 205 204 201 199 199 199 200 202 203 204 206 207 207 207 207 208 211 214 217 219 222 224 226 227 229 231 234 236 239 241 243 246 248 251 253 255 256 258 259 261 263 265 266
Height
5686 5686 5686 5686 5686 5686 5687 5688 5688 5689 5690 5691 5692 5693 5695 5697 5699 5701 5703 5705 5708 5711 5714 5718 5721 5724 5728 5731 5735 5739 5742 5746 5749 5754 5760 5761 5761 5762 5765 5768 5771 5773 5776 5777 5779 5781 5783 5784 5786 5788 5789 5790 5792 5794 5796 5798 5800 5803 5806 5809 5812 5814 5814 5814 5815 5816 5817 5819 5822 5824 5826 5828 5829 5830 5831 5831 5833 5834 5836 5837 5838 5839 5840 5841 5842 5843 5843 5844
5680 5679 5679 5679 5679 5680 5680 5681 5682 5683 5684 5684 5685 5687 5688 5690 5692 5695 5697 5699 5702 5705 5708 5711 5715 5718 5722 5725 5729 5733 5737 5740 5744 5751 5755 5754 5755 5758 5761 5764 5767 5770 5772 5774 5776 5778 5780 5782 5784 5785 5786 5788 5789 5791 5793 5795 5798 5801 5804 5807 5809 5810 5810 5811 5812 5813 5814 5816 5819 5821 5823 5825 5827 5828 5829 5830 5831 5833 5834 5836 5837 5837 5838 5839 5840 5841 5842 5842
5673 5673 5672 5672 5672 5673 5673 5674 5675 5676 5677 5678 5679 5680 5682 5684 5686 5688 5691 5693 5696 5699 5702 5705 5708 5712 5715 5719 5723 5727 5731 5734 5740 5746 5748 5749 5751 5754 5757 5761 5763 5766 5768 5770 5772 5775 5777 5780 5782 5783 5784 5786 5787 5789 5790 5793 5796 5798 5802 5805 5807 5807 5807 5808 5809 5810 5812 5814 5816 5818 5820 5823 5825 5826 5827 5828 5829 5830 5832 5834 5835 5835 5836 5837 5838 5839 5840 5841
5666 5666 5666 5666 5666 5666 5666 5667 5668 5669 5670 5672 5673 5674 5675 5677 5679 5682 5684 5687 5690 5693 5697 5700 5703 5706 5709 5713 5717 5721 5725 5729 5735 5740 5742 5745 5746 5749 5754 5757 5760 5762 5765 5767 5769 5772 5775 5777 5779 5780 5782 5783 5785 5786 5788 5790 5793 5796 5799 5803 5803 5803 5805 5806 5807 5808 5809 5812 5814 5815 5818 5820 5822 5824 5825 5826 5827 5829 5830 5832 5833 5834 5834 5835 5835 5837 5838 5840
5659 5659 5659 5659 5659 5659 5659 5660 5662 5662 5664 5665 5666 5668 5669 5671 5673 5675 5678 5681 5684 5687 5690 5694 5697 5700 5703 5707 5711 5716 5719 5723 5730 5734 5737 5739 5741 5745 5750 5752 5756 5759 5761 5764 5766 5769 5772 5774 5776 5778 5779 5781 5783 5784 5786 5788 5790 5793 5797 5800 5800 5801 5803 5803 5805 5806 5807 5810 5812 5813 5816 5818 5820 5822 5823 5824 5826 5827 5828 5829 5830 5831 5832 5833 5833 5835 5837 5838
5652 5652 5652 5652 5652 5652 5652 5653 5654 5655 5657 5658 5659 5661 5663 5664 5667 5669 5672 5675 5678 5681 5684 5688 5691 5694 5698 5701 5706 5710 5714 5718 5724 5728 5731 5733 5736 5741 5745 5748 5752 5754 5757 5761 5764 5767 5769 5772 5774 5775 5777 5778 5780 5782 5783 5785 5787 5791 5795 5796 5797 5799 5800 5802 5803 5804 5805 5808 5810 5812 5814 5816 5818 5819 5820 5822 5824 5825 5826 5827 5828 5829 5829 5830 5832 5833 5835 5836
5644 5644 5644 5644 5644 5645 5645 5645 5647 5648 5649 5651 5652 5654 5656 5658 5660 5663 5666 5668 5672 5675 5678 5682 5685 5689 5692 5696 5700 5704 5709 5714 5718 5723 5726 5728 5732 5737 5740 5744 5747 5750 5754 5758 5761 5764 5767 5769 5771 5773 5774 5776 5778 5780 5781 5782 5785 5788 5792 5793 5794 5797 5798 5800 5801 5801 5803 5805 5808 5810 5812 5814 5815 5817 5819 5820 5822 5824 5824 5825 5825 5826 5827 5829 5830 5831 5832 5833
5636 5635 5635 5636 5636 5637 5637 5637 5639 5640 5642 5644 5645 5647 5649 5651 5654 5657 5659 5662 5665 5669 5672 5676 5679 5683 5686 5690 5695 5699 5706 5710 5712 5716 5721 5723 5727 5731 5735 5739 5742 5746 5750 5754 5758 5760 5763 5766 5768 5770 5772 5773 5776 5777 5778 5780 5782 5786 5789 5790 5791 5794 5795 5797 5799 5799 5801 5803 5805 5808 5810 5812 5813 5815 5817 5818 5820 5823 5823 5823 5823 5824 5825 5827 5828 5828 5829 5830
5627 5626 5626 5626 5627 5627 5628 5629 5630 5632 5634 5636 5638 5639 5642 5645 5648 5650 5653 5656 5659 5662 5666 5670 5673 5677 5681 5685 5690 5695 5702 5703 5705 5710 5715 5718 5722 5726 5731 5735 5738 5742 5746 5750 5753 5756 5760 5763 5765 5767 5769 5770 5773 5774 5775 5778 5781 5783 5786 5786 5787 5790 5792 5795 5797 5797 5799 5802 5803 5806 5809 5811 5812 5813 5815 5817 5820 5822 5822 5821 5821 5822 5824 5825 5826 5826 5827 5828
5617 5617 5616 5616 5617 5617 5619 5620 5622 5623 5625 5627 5630 5632 5634 5637 5641 5644 5647 5650 5653 5657 5660 5664 5667 5671 5675 5680 5685 5691 5696 5696 5699 5705 5709 5713 5717 5722 5727 5730 5734 5738 5741 5745 5749 5753 5757 5759 5761 5763 5765 5767 5770 5771 5773 5776 5778 5780 5782 5782 5784 5788 5791 5794 5796 5796 5798 5800 5802 5804 5807 5809 5810 5812 5814 5817 5819 5820 5820 5820 5820 5821 5822 5823 5823 5823 5824 5826
5609 5608 5607 5607 5607 5607 5608 5610 5612 5614 5615 5618 5621 5624 5627 5630 5634 5637 5641 5644 5647 5651 5654 5658 5662 5666 5670 5675 5681 5687 5689 5691 5694 5700 5704 5709 5712 5717 5722 5726 5730 5733 5737 5741 5745 5749 5752 5754 5757 5759 5762 5765 5767 5769 5771 5774 5775 5777 5779 5780 5783 5786 5789 5792 5794 5794 5796 5798 5800 5802 5805 5807 5809 5811 5814 5816 5817 5818 5818 5819 5819 5819 5819 5819 5820 5820 5821 5823
5600 5599 5598 5597 5597 5597 5598 5599 5601 5604 5606 5609 5612 5616 5619 5622 5626 5630 5634 5637 5641 5645 5648 5652 5656 5661 5664 5671 5677 5679 5682 5685 5689 5694 5699 5703 5707 5712 5717 5721 5725 5729 5734 5737 5741 5744 5747 5750 5754 5756 5759 5762 5764 5766 5769 5771 5773 5775 5777 5779 5781 5784 5787 5790 5791 5793 5794 5796 5799 5801 5804 5807 5809 5811 5813 5814 5815 5816 5817 5817 5816 5816 5815 5813 5814 5816 5818 5820
5590 5589 5588 5587 5587 5587 5588 5589 5591 5593 5595 5599 5603 5607 5611 5614 5618 5623 5627 5631 5635 5639 5642 5646 5651 5655 5660 5667 5670 5672 5677 5681 5685 5690 5694 5698 5703 5707 5712 5717 5721 5725 5729 5733 5736 5740 5743 5747 5750 5753 5756 5759 5761 5763 5767 5769 5771 5773 5774 5776 5778 5782 5785 5788 5790 5791 5793 5795 5798 5801 5804 5806 5808 5809 5810 5812 5813 5814 5815 5815 5813 5810 5809 5808 5809 5812 5816 5819
5580 5579 5578 5577 5576 5576 5577 5578 5580 5582 5584 5588 5593 5597 5601 5605 5610 5615 5620 5624 5628 5633 5637 5641 5645 5649 5655 5661 5663 5666 5673 5677 5680 5685 5689 5694 5699 5703 5707 5712 5717 5721 5725 5728 5733 5737 5740 5744 5747 5750 5753 5756 5758 5761 5765 5767 5769 5770 5772 5774 5776 5779 5784 5786 5788 5790 5792 5794 5797 5801 5802 5804 5805 5806 5808 5809 5811 5813 5814 5813 5812 5809 5809 5810 5808 5809 5814 5817
5569 5568 5567 5566 5565 5565 5565 5566 5569 5571 5574 5577 5581 5587 5592 5597 5602 5607 5613 5618 5622 5626 5631 5635 5640 5644 5650 5655 5658 5662 5668 5672 5675 5679 5685 5690 5695 5699 5703 5708 5712 5717 5720 5724 5729 5733 5737 5741 5744 5747 5750 5752 5755 5758 5762 5764 5766 5767 5769 5772 5773 5777 5782 5785 5787 5789 5791 5793 5796 5798 5799 5801 5802 5804 5806 5808 5809 5811 5812 5812 5813 5813 5814 5815 5810 5809 5813 5816
5559 5557 5556 5555 5554 5554 5554 5554 5556 5559 5563 5566 5570 5576 5583 5588 5593 5599 5606 5611 5616 5621 5626 5630 5635 5639 5644 5649 5653 5657 5662 5666 5669 5675 5681 5686 5690 5694 5698 5703 5708 5711 5715 5720 5725 5728 5732 5737 5741 5744 5747 5750 5753 5755 5759 5761 5763 5765 5768 5770 5772 5775 5779 5783 5786 5788 5790 5792 5794 5795 5796 5799 5801 5803 5805 5806 5807 5808 5809 5810 5811 5814 5817 5817 5812 5811 5814 5816
5549 5546 5544 5542 5541 5541 5541 5541 5543 5546 5551 5555 5559 5565 5573 5579 5585 5591 5598 5604 5609 5615 5620 5625 5630 5634 5639 5644 5648 5652 5657 5662 5666 5672 5678 5681 5685 5690 5693 5698 5703 5707 5711 5716 5720 5724 5728 5732 5736 5740 5743 5747 5750 5753 5756 5758 5761 5763 5766 5768 5770 5773 5776 5780 5784 5786 5788 5790 5791 5792 5795 5798 5799 5801 5802 5802 5803 5803 5804 5807 5810 5813 5816 5816 5811 5810 5813 5815
5538 5535 5532 5529 5528 5528 5528 5529 5530 5533 5538 5544 5548 5554 5563 5570 5576 5583 5590 5597 5603 5609 5615 5620 5625 5630 5634 5639 5643 5647 5652 5658 5663 5668 5673 5677 5682 5685 5689 5694 5699 5703 5707 5711 5716 5720 5724 5728 5732 5736 5740 5743 5746 5750 5754 5757 5760 5762 5764 5766 5769 5771 5773 5777 5782 5785 5786 5788 5788 5789 5793 5795 5797 5797 5797 5797 5797 5797 5800 5804 5809 5811 5813 5814 5811 5810 5812 5814
5528 5524 5521 5519 5517 5516 5517 5518 5519 5523 5527 5532 5537 5543 5552 5559 5567 5575 5582 5589 5597 5604 5610 5615 5620 5625 5629 5634 5639 5643 5648 5654 5659 5663 5668 5673 5678 5682 5686 5690 5695 5699 5703 5707 5711 5715 5719 5724 5728 5732 5736 5740 5745 5749 5753 5757 5759 5760 5763 5766 5768 5770 5771 5774 5779 5783 5784 5785 5786 5788 5790 5792 5793 5794 5793 5793 5794 5797 5799 5802 5807 5809 5810 5811 5810 5809 5811 5813
5518 5515 5512 5510 5508 5507 5507 5508 5510 5514 5517 5520 5526 5533 5541 5550 5559 5567 5575 5584 5593 5599 5604 5610 5615 5620 5625 5629 5634 5639 5644 5650 5655 5659 5663 5668 5673 5678 5682 5686 5691 5695 5699 5703 5708 5712 5716 5720 5725 5730 5735 5740 5744 5747 5751 5754 5756 5758 5761 5764 5766 5768 5769 5772 5776 5779 5781 5782 5784 5785 5787 5788 5790 5791 5791 5791 5793 5797 5800 5802 5804 5805 5805 5806 5807 5808 5810 5811
5509 5506 5504 5502 5500 5499 5500 5500 5502 5506 5509 5511 5517 5524 5532 5541 5551 5561 5570 5579 5587 5593 5600 5606 5611 5616 5621 5625 5629 5634 5639 5645 5650 5654 5659 5664 5669 5673 5677 5682 5687 5692 5696 5700 5704 5709 5712 5716 5722 5729 5734 5738 5741 5744 5748 5751 5753 5756 5759 5761 5763 5765 5767 5769 5773 5776 5778 5780 5781 5783 5784 5785 5787 5789 5789 5790 5792 5796 5798 5800 5802 5802 5801 5800 5802 5806 5808 5810
5502 5499 5497 5495 5494 5493 5493 5493 5495 5498 5501 5504 5510 5517 5525 5533 5544 5556 5565 5573 5581 5589 5595 5602 5607 5613 5617 5621 5625 5630 5636 5641 5646 5650 5655 5660 5665 5670 5674 5679 5684 5688 5692 5696 5700 5704 5708 5713 5720 5726 5730 5734 5737 5741 5745 5748 5750 5754 5756 5758 5761 5763 5765 5767 5770 5774 5776 5778 5779 5781 5782 5783 5785 5786 5786 5789 5792 5794 5795 5796 5797 5801 5802 5798 5797 5803 5806 5808
5496 5494 5492 5491 5489 5487 5486 5486 5488 5491 5494 5498 5504 5511 5517 5525 5538 5551 5559 5568 5576 5583 5590 5597 5603 5608 5612 5617 5621 5626 5632 5638 5642 5646 5651 5656 5662 5667 5671 5676 5681 5685 5689 5693 5697 5701 5705 5711 5717 5722 5727 5730 5734 5738 5742 5745 5748 5751 5754 5756 5759 5761 5763 5765 5768 5771 5773 5775 5776 5779 5780 5780 5782 5783 5784 5787 5790 5792 5793 5793 5794 5798 5801 5798 5795 5800 5804 5806
5492 5490 5488 5486 5483 5481 5480 5480 5482 5484 5488 5493 5498 5505 5512 5521 5534 5545 5554 5563 5570 5578 5586 5593 5598 5603 5607 5612 5617 5622 5627 5633 5638 5643 5648 5653 5658 5664 5669 5673 5678 5682 5687 5691 5695 5699 5703 5709 5715 5720 5724 5728 5731 5735 5739 5742 5746 5749 5752 5755 5757 5760 5762 5763 5766 5769 5771 5772 5773 5776 5777 5777 5778 5780 5782 5785 5787 5789 5791 5793 5795 5797 5799 5798 5794 5796 5802 5805
5489 5486 5484 5481 5478 5476 5475 5475 5476 5479 5483 5488 5494 5501 5508 5517 5529 5540 5548 5557 5565 5573 5581 5589 5595 5599 5603 5609 5614 5619 5623 5629 5635 5640 5645 5650 5655 5660 5665 5670 5675 5679 5684 5688 5692 5696 5700 5706 5712 5717 5722 5725 5728 5732 5736 5740 5744 5747 5750 5753 5756 5758 5759 5761 5764 5766 5767 5768 5770 5773 5774 5773 5775 5777 5780 5784 5786 5787 5789 5791 5794 5796 5797 5798 5796 5796 5800 5803
5486 5483 5480 5476 5473 5472 5471 5472 5473 5475 5480 5486 5492 5498 5504 5513 5524 5535 5544 5552 5561 5569 5577 5585 5591 5594 5599 5606 5612 5616 5621 5626 5632 5637 5642 5647 5652 5657 5662 5666 5671 5676 5681 5685 5689 5692 5696 5702 5708 5713 5718 5721 5725 5729 5733 5737 5741 5744 5747 5751 5754 5755 5757 5758 5761 5763 5764 5766 5768 5770 5771 5770 5773 5776 5778 5782 5785 5786 5787 5788 5791 5794 5796 5797 5797 5797 5799 5802
5483 5480 5476 5473 5471 5469 5470 5471 5472 5475 5479 5484 5490 5497 5503 5511 5521 5531 5540 5549 5558 5565 5573 5581 5586 5590 5596 5603 5609 5614 5618 5623 5629 5634 5639 5644 5649 5654 5659 5663 5668 5673 5677 5681 5685 5688 5693 5699 5705 5709 5714 5717 5721 5726 5731 5734 5737 5741 5745 5749 5752 5754 5755 5756 5759 5760 5762 5764 5765 5767 5768 5767 5770 5774 5776 5779 5784 5785 5785 5787 5789 5793 5794 5796 5797 5796 5797 5800
5480 5477 5474 5471 5469 5468 5469 5471 5473 5475 5479 5483 5489 5495 5501 5509 5519 5528 5537 5546 5555 5561 5568 5576 5582 5587 5593 5599 5606 5611 5616 5621 5627 5631 5637 5641 5646 5651 5656 5661 5666 5670 5675 5678 5682 5686 5690 5696 5702 5707 5710 5714 5718 5724 5728 5732 5735 5739 5743 5747 5750 5752 5753 5755 5757 5758 5760 5761 5761 5763 5765 5765 5767 5771 5773 5776 5781 5783 5784 5786 5788 5791 5793 5795 5796 5795 5796 5798
5479 5476 5474 5471 5470 5470 5471 5473 5474 5476 5479 5483 5488 5494 5501 5508 5516 5525 5534 5543 5550 5556 5564 5573 5579 5585 5590 5597 5603 5607 5612 5618 5624 5630 5635 5639 5643 5648 5654 5659 5664 5668 5673 5677 5680 5685 5690 5696 5701 5705 5709 5713 5717 5722 5725 5729 5733 5737 5741 5744 5747 5749 5750 5752 5754 5756 5757 5757 5758 5760 5763 5764 5764 5768 5771 5773 5778 5782 5784 5786 5787 5789 5791 5793 5795 5796 5796 5797
5480 5477 5475 5473 5473 5473 5474 5475 5477 5479 5482 5485 5490 5496 5501 5507 5514 5523 5532 5539 5546 5553 5562 5571 5577 5582 5588 5595 5601 5605 5609 5614 5620 5627 5632 5636 5640 5645 5650 5656 5662 5666 5670 5674 5677 5682 5688 5693 5698 5703 5707 5711 5715 5719 5723 5726 5730 5734 5737 5741 5744 5746 5748 5749 5750 5752 5753 5753 5755 5758 5761 5762 5762 5765 5769 5773 5778 5782 5783 5785 5786 5787 5789 5790 5793 5794 5795 5796
5481 5478 5477 5477 5476 5476 5477 5478 5480 5482 5485 5488 5492 5497 5502 5507 5514 5522 5529 5537 5545 5552 5560 5568 5574 5580 5587 5594 5599 5603 5607 5612 5617 5623 5628 5632 5637 5641 5646 5652 5657 5661 5665 5669 5673 5679 5684 5689 5694 5699 5703 5706 5710 5715 5720 5723 5726 5730 5734 5737 5740 5742 5745 5746 5747 5748 5748 5749 5754 5756 5758 5759 5759 5763 5768 5773 5777 5779 5780 5783 5784 5786 5787 5789 5791 5792 5793 5795
5483 5481 5480 5480 5479 5479 5479 5480 5482 5484 5487 5490 5494 5498 5502 5508 5516 5522 5529 5537 5545 5551 5558 5566 5572 5579 5585 5591 5596 5601 5606 5611 5616 5621 5626 5630 5634 5638 5643 5648 5653 5656 5660 5664 5668 5674 5680 5685 5691 5695 5699 5702 5706 5710 5715 5718 5722 5726 5730 5733 5736 5739 5741 5742 5743 5745 5745 5747 5751 5754 5755 5756 5757 5761 5767 5771 5774 5776 5778 5780 5782 5783 5785 5786 5788 5790 5791 5792
5486 5484 5483 5482 5482 5482 5482 5483 5484 5486 5489 5492 5496 5500 5504 5510 5518 5524 5530 5537 5543 5549 5557 5565 5571 5576 5582 5589 5594 5598 5604 5609 5615 5620 5625 5629 5633 5638 5642 5647 5651 5655 5658 5662 5666 5671 5676 5681 5686 5690 5694 5698 5702 5706 5710 5714 5718 5722 5726 5729 5732 5734 5736 5738 5740 5742 5743 5745 5749 5753 5754 5753 5754 5759 5764 5768 5771 5774 5776 5778 5779 5781 5783 5784 5786 5788 5789 5790
5487 5486 5486 5485 5485 5485 5485 5486 5487 5488 5491 5494 5497 5502 5507 5513 5519 5525 5531 5536 5542 5549 5557 5564 5569 5574 5581 5587 5592 5596 5601 5607 5613 5619 5623 5627 5631 5636 5640 5644 5649 5653 5656 5661 5665 5670 5674 5677 5681 5685 5690 5695 5699 5704 5709 5714 5718 5721 5724 5727 5729 5732 5734 5736 5738 5740 5741 5743 5747 5751 5751 5749 5751 5757 5761 5765 5768 5770 5773 5775 5777 5779 5781 5783 5784 5786 5787 5788
5489 5488 5487 5487 5487 5487 5488 5489 5490 5492 5495 5497 5500 5505 5511 5516 5522 5527 5532 5537 5543 5550 5557 5563 5569 5574 5580 5585 5590 5595 5600 5605 5611 5616 5621 5626 5630 5635 5639 5642 5646 5650 5653 5658 5663 5668 5672 5676 5680 5684 5689 5694 5698 5702 5707 5711 5715 5719 5721 5724 5726 5729 5731 5734 5737 5739 5740 5742 5745 5749 5748 5746 5750 5755 5759 5763 5765 5768 5771 5773 5774 5777 5779 5781 5782 5784 5785 5786
5491 5490 5490 5489 5490 5490 5491 5492 5494 5495 5498 5501 5505 5509 5514 5519 5525 5529 5533 5537 5543 5550 5556 5561 5567 5574 5579 5584 5588 5593 5599 5604 5610 5614 5619 5624 5629 5633 5637 5641 5645 5648 5652 5656 5660 5665 5669 5673 5678 5682 5687 5692 5696 5701 5705 5707 5710 5714 5717 5720 5723 5726 5728 5731 5735 5736 5737 5739 5742 5745 5745 5745 5749 5753 5756 5759 5762 5765 5768 5770 5773 5774 5776 5778 5780 5781 5782 5783
5493 5493 5492 5492 5493 5494 5495 5496 5497 5499 5501 5504 5508 5513 5518 5522 5526 5529 5532 5537 5544 5550 5556 5561 5567 5574 5580 5584 5588 5593 5598 5602 5607 5613 5617 5622 5626 5631 5635 5639 5643 5647 5651 5655 5659 5663 5668 5672 5676 5680 5684 5690 5694 5699 5703 5705 5708 5711 5715 5719 5722 5724 5727 5730 5731 5732 5734 5736 5739 5742 5742 5743 5747 5750 5753 5756 5760 5763 5766 5768 5771 5772 5774 5775 5777 5779 5780 5780
5495 5495 5495 5496 5497 5498 5499 5500 5501 5502 5504 5507 5512 5516 5520 5523 5526 5530 5533 5539 5545 5551 5557 5561 5567 5573 5579 5584 5588 5593 5597 5602 5606 5610 5615 5620 5624 5629 5632 5636 5640 5644 5649 5653 5657 5662 5666 5670 5675 5678 5682 5687 5692 5695 5699 5702 5706 5710 5715 5717 5719 5722 5725 5726 5727 5729 5731 5733 5736 5739 5740 5742 5744 5747 5751 5755 5758 5761 5765 5767 5770 5771 5772 5773 5775 5776 5777 5778
5498 5498 5499 5500 5501 5502 5503 5504 5505 5506 5508 5511 5514 5517 5520 5524 5528 5531 5535 5540 5546 5552 5557 5562 5568 5573 5578 5584 5588 5592 5597 5601 5605 5609 5613 5617 5622 5627 5630 5634 5638 5642 5646 5650 5654 5659 5663 5667 5671 5675 5680 5685 5688 5691 5694 5698 5702 5706 5709 5713 5717 5721 5723 5724 5725 5727 5729 5731 5734 5737 5738 5740 5743 5745 5750 5754 5757 5760 5763 5765 5768 5769 5770 5771 5773 5774 5775 5776
5502 5503 5503 5504 5505 5506 5506 5507 5508 5509 5512 5515 5517 5518 5521 5526 5530 5533 5536 5542 5548 5554 5559 5564 5569 5573 5578 5583 5587 5592 5596 5600 5604 5608 5612 5617 5621 5625 5629 5632 5636 5640 5644 5647 5651 5656 5660 5665 5669 5672 5677 5681 5683 5687 5693 5696 5699 5702 5704 5707 5712 5716 5719 5721 5723 5725 5727 5729 5731 5733 5735 5739 5743 5745 5749 5753 5755 5757 5759 5761 5764 5766 5768 5769 5771 5772 5772 5773
5508 5508 5508 5508 5508 5509 5510 5511 5512 5514 5516 5519 5520 5522 5526 5530 5532 5534 5539 5545 5550 5556 5561 5565 5570 5574 5578 5583 5587 5591 5595 5599 5603 5607 5612 5616 5620 5624 5627 5631 5635 5638 5642 5645 5648 5652 5657 5662 5667 5670 5673 5678 5682 5687 5693 5696 5699 5703 5705 5706 5710 5713 5716 5717 5718 5721 5724 5726 5728 5730 5733 5737 5742 5744 5747 5751 5753 5755 5756 5758 5761 5763 5765 5767 5768 5769 5770 5771
5514 5513 5513 5513 5513 5514 5515 5517 5518 5520 5521 5522 5524 5527 5530 5532 5534 5538 5543 5548 5553 5557 5561 5566 5570 5574 5579 5583 5586 5590 5594 5598 5602 5606 5610 5615 5619 5623 5626 5630 5634 5637 5640 5643 5647 5651 5655 5660 5664 5668 5671 5676 5681 5686 5690 5694 5697 5701 5704 5706 5709 5711 5714 5716 5716 5719 5722 5723 5725 5728 5730 5734 5738 5742 5745 5748 5750 5752 5754 5756 5758 5760 5762 5764 5765 5766 5767 5769
5518 5518 5518 5518 5519 5520 5521 5522 5523 5523 5524 5526 5528 5531 5533 5535 5538 5543 5547 5551 5554 5558 5562 5566 5571 5575 5579 5583 5586 5590 5594 5598 5601 5605 5610 5614 5618 5621 5624 5628 5632 5635 5638 5642 5646 5649 5654 5658 5662 5665 5670 5674 5678 5682 5687 5690 5692 5695 5699 5702 5706 5709 5713 5715 5717 5719 5721 5722 5724 5727 5728 5731 5735 5740 5743 5745 5747 5749 5751 5754 5756 5758 5760 5761 5762 5764 5765 5767
5523 5523 5523 5524 5525 5525 5526 5526 5526 5527 5528 5530 5532 5533 5536 5538 5543 5547 5550 5553 5556 5560 5564 5568 5572 5576 5580 5583 5587 5591 5594 5598 5601 5605 5610 5614 5617 5620 5623 5626 5630 5633 5636 5641 5644 5647 5652 5656 5660 5663 5667 5670 5674 5677 5681 5684 5686 5690 5695 5699 5703 5707 5710 5713 5715 5717 5719 5721 5723 5725 5726 5730 5734 5738 5740 5743 5745 5747 5749 5751 5753 5755 5757 5758 5760 5761 5763 5764
5530 5530 5530 5530 5530 5530 5531 5531 5531 5532 5533 5535 5536 5537 5539 5543 5547 5551 5553 5556 5559 5563 5566 5570 5574 5577 5580 5584 5587 5591 5595 5598 5602 5605 5609 5613 5617 5619 5621 5625 5628 5631 5635 5640 5643 5646 5651 5655 5658 5661 5664 5667 5670 5673 5676 5680 5683 5686 5691 5695 5699 5703 5706 5709 5712 5713 5715 5718 5720 5722 5724 5728 5732 5735 5737 5739 5742 5744 5746 5748 5750 5752 5754 5755 5757 5759 5760 5761
5537 5536 5536 5536 5535 5535 5535 5535 5535 5536 5537 5538 5539 5541 5543 5547 5551 5554 5556 5559 5562 5565 5568 5572 5575 5578 5581 5584 5587 5591 5595 5599 5603 5606 5609 5612 5615 5617 5620 5623 5627 5630 5633 5637 5641 5644 5648 5653 5657 5660 5664 5667 5670 5673 5677 5680 5682 5685 5689 5692 5696 5699 5703 5706 5708 5710 5713 5716 5717 5719 5722 5725 5728 5732 5734 5737 5739 5741 5744 5746 5747 5749 5751 5753 5754 5756 5757 5758
5543 5542 5541 5540 5540 5540 5540 5540 5540 5540 5541 5542 5543 5546 5548 5550 5553 5557 5560 5563 5565 5568 5570 5573 5576 5578 5581 5584 5588 5592 5596 5599 5603 5606 5609 5612 5614 5616 5619 5622 5625 5629 5632 5635 5638 5641 5645 5650 5654 5658 5662 5666 5669 5672 5676 5679 5681 5684 5687 5690 5693 5697 5700 5702 5704 5707 5710 5713 5715 5717 5720 5723 5726 5729 5732 5734 5736 5739 5741 5743 5744 5746 5748 5750 5751 5752 5753 5754
5547 5546 5545 5545 5545 5545 5545 5544 5544 5545 5547 5548 5549 5551 5553 5554 5556 5560 5563 5566 5567 5569 5572 5575 5577 5579 5582 5585 5588 5592 5596 5599 5603 5606 5609 5611 5613 5614 5617 5620 5624 5627 5630 5633 5636 5639 5643 5648 5652 5655 5659 5662 5666 5669 5673 5676 5678 5681 5685 5688 5691 5694 5697 5700 5702 5705 5707 5710 5712 5715 5717 5720 5723 5726 5728 5731 5733 5736 5737 5739 5741 5743 5744 5746 5747 5749 5750 5751
5550 5549 5549 5549 5550 5550 5549 5549 5549 5549 5551 5553 5554 5555 5557 5558 5560 5562 5565 5567 5569 5571 5574 5576 5578 5581 5584 5587 5590 5593 5596 5600 5603 5606 5608 5610 5612 5614 5616 5619 5623 5626 5628 5631 5634 5637 5641 5646 5649 5653 5656 5659 5663 5667 5670 5673 5676 5678 5682 5686 5689 5692 5695 5698 5700 5703 5705 5707 5710 5712 5715 5717 5720 5723 5725 5727 5730 5732 5734 5735 5737 5739 5741 5743 5744 5745 5747 5748
5553 5553 5552 5552 5553 5554 5554 5553 5553 5553 5554 5556 5557 5559 5561 5562 5563 5565 5567 5569 5571 5573 5575 5577 5580 5582 5585 5587 5590 5593 5597 5601 5604 5606 5608 5609 5611 5614 5616 5618 5621 5624 5627 5630 5633 5636 5640 5644 5647 5651 5654 5657 5660 5664 5667 5670 5673 5676 5679 5683 5687 5690 5692 5695 5697 5700 5702 5705 5707 5710 5712 5714 5717 5719 5722 5724 5726 5728 5730 5732 5734 5736 5738 5739 5740 5742 5743 5744
5557 5556 5556 5555 5555 5556 5557 5557 5557 5557 5557 5559 5560 5562 5563 5565 5566 5568 5569 5571 5573 5574 5576 5578 5581 5583 5585 5588 5590 5593 5597 5601 5603 5605 5607 5609 5611 5613 5615 5618 5620 5623 5626 5629 5632 5634 5638 5642 5645 5648 5652 5654 5658 5661 5664 5668 5671 5674 5677 5680 5683 5686 5689 5692 5694 5697 5699 5702 5704 5707 5709 5712 5714 5716 5718 5721 5723 5725 5727 5729 5731 5733 5734 5736 5737 5738 5739 5740
5560 5560 5559 5559 5558 5558 5559 5559 5560 5561 5561 5562 5564 5565 5566 5567 5568 5570 5572 5573 5574 5576 5577 5579 5581 5583 5585 5588 5591 5593 5597 5600 5602 5604 5606 5608 5610 5613 5615 5618 5620 5623 5625 5628 5631 5634 5637 5641 5644 5646 5649 5652 5655 5659 5662 5665 5667 5670 5673 5677 5680 5683 5686 5689 5691 5694 5697 5699 5701 5704 5707 5710 5711 5713 5715 5718 5720 5722 5724 5726 5728 5730 5731 5732 5733 5735 5736 5737